When you browse on this site, cookies collect data to enhance your experience and personalize the content and advertising you see.
Visit our Privacy Policy to learn more. By continuing to use the site, you agree to this use of cookies and data.
  • In Österreich
  • Länderverzeichnis
  • Für 7 Tage
  • Wassertemperatur
  • Wetterkarte
  • News
  • Widgets
  • user-avatar
    Anmelden

    Stündliche Wetter Hlushkiv

    Heute, 6 Juni, Samstag

    Zeit Temperatur Niederschläge Wind Luftdruck Luftfeuchtigkeit
    00:00 +17°C° 0 mm 2 m/S 728 mmHg 92%
    01:00 +17°C° 0 mm 2 m/S 728 mmHg 96%
    02:00 +16°C° 0 mm 2 m/S 729 mmHg 97%
    03:00 +17°C° 0 mm 2 m/S 729 mmHg 95%
    04:00 +16°C° 0 mm 2 m/S 729 mmHg 96%
    05:00 +16°C° 0 mm 2 m/S 729 mmHg 94%
    06:00 +17°C° 0 mm 3 m/S 729 mmHg 92%
    07:00 +17°C° 0 mm 2 m/S 730 mmHg 93%
    08:00 +19°C° 0 mm 2 m/S 731 mmHg 92%
    09:00 +20°C° 0 mm 2 m/S 731 mmHg 87%
    10:00 +23°C° 0 mm 2 m/S 733 mmHg 81%
    11:00 +23°C° 0 mm 2 m/S 733 mmHg 79%
    12:00 +24°C° 0 mm 2 m/S 733 mmHg 76%
    13:00 +25°C° 0 mm 2 m/S 733 mmHg 75%
    14:00 +23°C° 0 mm 0 m/S 733 mmHg 75%
    15:00 +23°C° 0 mm 0 m/S 732 mmHg 76%
    16:00 +25°C° 0 mm 3 m/S 732 mmHg 79%
    17:00 +23°C° 0 mm 7 m/S 732 mmHg 89%
    18:00 +20°C° 1 mm 7 m/S 732 mmHg 92%
    19:00 +21°C° 0.6 mm 1 m/S 732 mmHg 90%
    20:00 +20°C° 0 mm 3 m/S 732 mmHg 95%
    21:00 +19°C° 0 mm 2 m/S 732 mmHg 98%
    22:00 +19°C° 0 mm 3 m/S 731 mmHg 97%
    23:00 +19°C° 0 mm 3 m/S 732 mmHg 98%

    Morgen, 7 Juni, Sonntag

    Zeit Temperatur Niederschläge Wind Luftdruck Luftfeuchtigkeit
    00:00 +18°C° 0 mm 3 m/S 732 mmHg 100%
    01:00 +18°C° 0 mm 4 m/S 731 mmHg 100%
    02:00 +19°C° 0 mm 4 m/S 732 mmHg 100%
    03:00 +19°C° 0 mm 4 m/S 731 mmHg 100%
    04:00 +18°C° 0 mm 4 m/S 731 mmHg 100%
    05:00 +18°C° 0 mm 4 m/S 731 mmHg 100%
    06:00 +18°C° 0 mm 3 m/S 731 mmHg 100%
    07:00 +18°C° 0 mm 4 m/S 732 mmHg 100%
    08:00 +20°C° 0 mm 4 m/S 732 mmHg 97%
    09:00 +21°C° 0 mm 4 m/S 732 mmHg 94%
    10:00 +22°C° 0 mm 4 m/S 732 mmHg 91%
    11:00 +23°C° 0 mm 5 m/S 732 mmHg 92%
    12:00 +25°C° 0 mm 5 m/S 732 mmHg 88%
    13:00 +26°C° 0 mm 6 m/S 732 mmHg 84%
    14:00 +26°C° 0 mm 6 m/S 732 mmHg 82%
    15:00 +24°C° 0 mm 6 m/S 732 mmHg 80%
    16:00 +24°C° 0 mm 7 m/S 731 mmHg 84%
    17:00 +24°C° 0 mm 7 m/S 731 mmHg 86%
    18:00 +24°C° 0 mm 6 m/S 731 mmHg 90%
    19:00 +23°C° 0 mm 5 m/S 731 mmHg 91%
    20:00 +21°C° 0 mm 4 m/S 732 mmHg 96%
    21:00 +21°C° 0 mm 3 m/S 732 mmHg 98%
    22:00 +20°C° 0 mm 3 m/S 732 mmHg 100%
    23:00 +19°C° 0 mm 4 m/S 732 mmHg 100%

    übermorgen, 8 Juni, Montag

    Zeit Temperatur Niederschläge Wind Luftdruck Luftfeuchtigkeit
    00:00 +19°C° 0 mm 4 m/S 732 mmHg 100%
    01:00 +18°C° 0 mm 3 m/S 732 mmHg 100%
    02:00 +18°C° 0 mm 3 m/S 732 mmHg 100%
    03:00 +17°C° 0 mm 3 m/S 731 mmHg 100%
    04:00 +17°C° 0 mm 2 m/S 731 mmHg 100%
    05:00 +17°C° 0 mm 2 m/S 731 mmHg 100%
    06:00 +18°C° 0 mm 1 m/S 731 mmHg 100%
    07:00 +19°C° 0 mm 1 m/S 731 mmHg 100%
    08:00 +18°C° 0 mm 2 m/S 731 mmHg 100%
    09:00 +19°C° 0 mm 2 m/S 731 mmHg 100%
    10:00 +19°C° 0 mm 2 m/S 732 mmHg 98%
    11:00 +20°C° 0 mm 3 m/S 732 mmHg 97%
    12:00 +20°C° 0 mm 3 m/S 732 mmHg 98%
    13:00 +21°C° 0 mm 3 m/S 731 mmHg 96%
    14:00 +23°C° 0 mm 4 m/S 731 mmHg 92%
    15:00 +23°C° 0 mm 5 m/S 730 mmHg 90%
    16:00 +23°C° 0 mm 5 m/S 730 mmHg 88%
    17:00 +23°C° 0 mm 5 m/S 730 mmHg 88%
    18:00 +23°C° 0 mm 5 m/S 730 mmHg 89%
    19:00 +22°C° 0 mm 4 m/S 730 mmHg 92%
    20:00 +21°C° 0 mm 4 m/S 730 mmHg 95%
    21:00 +20°C° 0 mm 4 m/S 730 mmHg 98%
    22:00 +20°C° 0 mm 4 m/S 730 mmHg 99%
    23:00 +20°C° 0 mm 3 m/S 730 mmHg 100%

    9 Juni, Dienstag

    Zeit Temperatur Niederschläge Wind Luftdruck Luftfeuchtigkeit
    00:00 +20°C° 0 mm 3 m/S 731 mmHg 100%
    01:00 +19°C° 0 mm 3 m/S 730 mmHg 100%
    02:00 +19°C° 0 mm 3 m/S 730 mmHg 100%
    03:00 +19°C° 0 mm 2 m/S 730 mmHg 100%
    04:00 +19°C° 0 mm 3 m/S 730 mmHg 100%
    05:00 +19°C° 0 mm 2 m/S 731 mmHg 100%
    06:00 +19°C° 0 mm 2 m/S 731 mmHg 100%
    07:00 +19°C° 0 mm 2 m/S 731 mmHg 100%
    08:00 +19°C° 0 mm 3 m/S 731 mmHg 99%
    09:00 +19°C° 0 mm 3 m/S 732 mmHg 99%
    10:00 +20°C° 0 mm 3 m/S 732 mmHg 96%
    11:00 +21°C° 0 mm 3 m/S 732 mmHg 95%
    12:00 +22°C° 0 mm 4 m/S 732 mmHg 93%
    13:00 +22°C° 0 mm 4 m/S 731 mmHg 90%
    14:00 +24°C° 0 mm 3 m/S 731 mmHg 86%
    15:00 +25°C° 0 mm 3 m/S 731 mmHg 85%
    16:00 +25°C° 0 mm 3 m/S 730 mmHg 85%
    17:00 +25°C° 0 mm 3 m/S 730 mmHg 83%
    18:00 +25°C° 0 mm 2 m/S 730 mmHg 84%
    19:00 +24°C° 0.1 mm 3 m/S 730 mmHg 92%
    20:00 +22°C° 0 mm 3 m/S 731 mmHg 95%
    21:00 +21°C° 0 mm 2 m/S 731 mmHg 98%
    22:00 +21°C° 0 mm 2 m/S 731 mmHg 99%
    23:00 +20°C° 0 mm 2 m/S 731 mmHg 100%

    10 Juni, Mittwoch

    Zeit Temperatur Niederschläge Wind Luftdruck Luftfeuchtigkeit
    00:00 +20°C° 0 mm 2 m/S 731 mmHg 100%
    01:00 +19°C° 0 mm 2 m/S 731 mmHg 100%
    02:00 +20°C° 0 mm 1 m/S 731 mmHg 100%
    03:00 +20°C° 0 mm 1 m/S 730 mmHg 100%
    04:00 +19°C° 0 mm 2 m/S 730 mmHg 100%
    05:00 +19°C° 0 mm 2 m/S 731 mmHg 100%
    06:00 +20°C° 0 mm 1 m/S 731 mmHg 100%
    07:00 +20°C° 0 mm 1 m/S 731 mmHg 99%
    08:00 +19°C° 0 mm 2 m/S 731 mmHg 99%
    09:00 +20°C° 0 mm 2 m/S 731 mmHg 95%
    10:00 +21°C° 0 mm 3 m/S 732 mmHg 93%
    11:00 +22°C° 0 mm 3 m/S 731 mmHg 91%
    12:00 +23°C° 0 mm 4 m/S 731 mmHg 90%
    13:00 +23°C° 0 mm 4 m/S 731 mmHg 89%
    14:00 +25°C° 0 mm 3 m/S 730 mmHg 88%
    15:00 +23°C° 0.4 mm 4 m/S 730 mmHg 90%
    16:00 +24°C° 1.9 mm 2 m/S 730 mmHg 91%
    17:00 +23°C° 6.6 mm 2 m/S 730 mmHg 94%
    18:00 +24°C° 0 mm 1 m/S 730 mmHg 88%
    19:00 +23°C° 0 mm 2 m/S 730 mmHg 94%
    20:00 +23°C° 3.8 mm 2 m/S 730 mmHg 98%
    21:00 +22°C° 6.3 mm 1 m/S 730 mmHg 98%
    22:00 +21°C° 1.7 mm 4 m/S 729 mmHg 99%
    23:00 +21°C° 0 mm 1 m/S 730 mmHg 98%

    11 Juni, Donnerstag

    Zeit Temperatur Niederschläge Wind Luftdruck Luftfeuchtigkeit
    00:00 +21°C° 0 mm 1 m/S 730 mmHg 99%
    01:00 +21°C° 0 mm 1 m/S 730 mmHg 100%
    02:00 +19°C° 0 mm 2 m/S 730 mmHg 100%
    03:00 +19°C° 0 mm 2 m/S 730 mmHg 100%
    04:00 +19°C° 0 mm 2 m/S 729 mmHg 100%
    05:00 +19°C° 0 mm 2 m/S 730 mmHg 100%
    06:00 +19°C° 0 mm 2 m/S 730 mmHg 100%
    07:00 +19°C° 0 mm 2 m/S 730 mmHg 100%
    08:00 +19°C° 0 mm 2 m/S 730 mmHg 100%
    09:00 +20°C° 0 mm 1 m/S 730 mmHg 100%
    10:00 +19°C° 0 mm 2 m/S 731 mmHg 99%
    11:00 +19°C° 0 mm 2 m/S 730 mmHg 98%
    12:00 +19°C° 0 mm 2 m/S 730 mmHg 98%
    13:00 +22°C° 0 mm 1 m/S 730 mmHg 97%
    14:00 +21°C° 0 mm 4 m/S 729 mmHg 97%
    15:00 +22°C° 0 mm 3 m/S 729 mmHg 95%
    16:00 +22°C° 0 mm 3 m/S 729 mmHg 93%
    17:00 +23°C° 0 mm 2 m/S 729 mmHg 93%
    18:00 +24°C° 0 mm 2 m/S 728 mmHg 93%
    19:00 +24°C° 0 mm 2 m/S 729 mmHg 92%
    20:00 +23°C° 0 mm 1 m/S 729 mmHg 97%
    21:00 +22°C° 0 mm 1 m/S 728 mmHg 98%
    22:00 +22°C° 0 mm 1 m/S 729 mmHg 99%
    23:00 +21°C° 0 mm 1 m/S 729 mmHg 100%
    Mehr zeigen